Location: Pontbriand
(46.1542°N, 71.2542°W)
Time: 23:42:50
(UTC+00:00)

Envisat - Pass Details

Date: 30 November 2021
Orbit: 764 x 766 km, 98.2° (Epoch: 19 January)

Event Time Altitude Azimuth Distance (km) Brightness Sun altitude
Rises 11:20:15 0° 360° (N) 3,245 6.0 -7.9°
Reaches altitude 10° 11:23:12 10° 342° (NNW) 2,314 5.1 -7.4°
Maximum altitude 11:26:35 18° 300° (WNW) 1,803 4.3 -6.9°
Drops below altitude 10° 11:29:58 10° 258° (WSW) 2,303 5.0 -6.4°
Sets 11:32:55 0° 241° (WSW) 3,224 5.9 -5.9°
